owner,sensor,date,latitude,longitude,vertical_datum,sea_water_temperature,qcFlag 
DISL,ioos:station:DISL:MHPA:1,2018-01-01T00:30:00Z,30.6671,-87.9365,-0.9,10.49,2 
DISL,ioos:station:DISL:MHPA:1,2018-01-01T01:30:00Z,30.6671,-87.9365,-0.9,10.03,2 
DISL,ioos:station:DISL:MHPA:1,2018-01-01T02:30:00Z,30.6671,-87.9365,-0.9,10.31,2 
DISL,ioos:station:DISL:MHPA:1,2018-01-01T03:30:00Z,30.6671,-87.9365,-0.9,9.25,2 
DISL,ioos:station:DISL:MHPA:1,2018-01-01T04:30:00Z,30.6671,-87.9365,-0.9,9.35,2 
DISL,ioos:station:DISL:MHPA:1,2018-01-01T05:00:00Z,30.6671,-87.9365,-0.9,8.95,2 
DISL,ioos:station:DISL:MHPA:1,2018-01-01T06:30:00Z,30.6671,-87.9365,-0.9,8.8,2 
DISL,ioos:station:DISL:MHPA:1,2018-01-01T07:30:00Z,30.6671,-87.9365,-0.9,8.21,2 
DISL,ioos:station:DISL:MHPA:1,2018-01-01T08:30:00Z,30.6671,-87.9365,-0.9,8.04,2 
DISL,ioos:station:DISL:MHPA:1,2018-01-01T09:30:00Z,30.6671,-87.9365,-0.9,8.2,2 
DISL,ioos:station:DISL:MHPA:1,2018-01-01T10:30:00Z,30.6671,-87.9365,-0.9,7.83,2 
DISL,ioos:station:DISL:MHPA:1,2018-01-01T11:30:00Z,30.6671,-87.9365,-0.9,7.47,2 
DISL,ioos:station:DISL:MHPA:1,2018-01-01T12:30:00Z,30.6671,-87.9365,-0.9,7.54,2 
DISL,ioos:station:DISL:MHPA:1,2018-01-01T13:30:00Z,30.6671,-87.9365,-0.9,7.11,2 
DISL,ioos:station:DISL:MHPA:1,2018-01-01T14:30:00Z,30.6671,-87.9365,-0.9,7.54,2 
DISL,ioos:station:DISL:MHPA:1,2018-01-01T15:30:00Z,30.6671,-87.9365,-0.9,7.14,2 
DISL,ioos:station:DISL:MHPA:1,2018-01-01T16:30:00Z,30.6671,-87.9365,-0.9,7.44,2 
DISL,ioos:station:DISL:MHPA:1,2018-01-01T17:30:00Z,30.6671,-87.9365,-0.9,7.42,2 
DISL,ioos:station:DISL:MHPA:1,2018-01-01T18:30:00Z,30.6671,-87.9365,-0.9,7.29,2 
DISL,ioos:station:DISL:MHPA:1,2018-01-01T19:30:00Z,30.6671,-87.9365,-0.9,7.57,2 
DISL,ioos:station:DISL:MHPA:1,2018-01-01T20:30:00Z,30.6671,-87.9365,-0.9,7.67,2 
DISL,ioos:station:DISL:MHPA:1,2018-01-01T21:30:00Z,30.6671,-87.9365,-0.9,7.65,2 
DISL,ioos:station:DISL:MHPA:1,2018-01-01T22:30:00Z,30.6671,-87.9365,-0.9,7.62,2 
DISL,ioos:station:DISL:MHPA:1,2018-01-01T23:30:00Z,30.6671,-87.9365,-0.9,7.43,2 
DISL,ioos:station:DISL:MHPA:1,2018-01-02T00:30:00Z,30.6671,-87.9365,-0.9,7.28,2 
DISL,ioos:station:DISL:MHPA:1,2018-01-02T01:30:00Z,30.6671,-87.9365,-0.9,7.13,2 
DISL,ioos:station:DISL:MHPA:1,2018-01-02T02:30:00Z,30.6671,-87.9365,-0.9,7.04,2 
DISL,ioos:station:DISL:MHPA:1,2018-01-02T03:30:00Z,30.6671,-87.9365,-0.9,6.88,2 
DISL,ioos:station:DISL:MHPA:1,2018-01-02T04:30:00Z,30.6671,-87.9365,-0.9,6.1,2 
DISL,ioos:station:DISL:MHPA:1,2018-01-02T05:30:00Z,30.6671,-87.9365,-0.9,6.11,2 
DISL,ioos:station:DISL:MHPA:1,2018-01-02T06:30:00Z,30.6671,-87.9365,-0.9,6.06,2 
DISL,ioos:station:DISL:MHPA:1,2018-01-02T07:30:00Z,30.6671,-87.9365,-0.9,5.36,2 
DISL,ioos:station:DISL:MHPA:1,2018-01-02T08:30:00Z,30.6671,-87.9365,-0.9,5.35,2 
DISL,ioos:station:DISL:MHPA:1,2018-01-02T09:30:00Z,30.6671,-87.9365,-0.9,5.16,2 
DISL,ioos:station:DISL:MHPA:1,2018-01-02T10:30:00Z,30.6671,-87.9365,-0.9,5.29,2 
DISL,ioos:station:DISL:MHPA:1,2018-01-02T11:30:00Z,30.6671,-87.9365,-0.9,4.87,2 
DISL,ioos:station:DISL:MHPA:1,2018-01-02T12:30:00Z,30.6671,-87.9365,-0.9,4.53,2 
DISL,ioos:station:DISL:MHPA:1,2018-01-02T13:30:00Z,30.6671,-87.9365,-0.9,4.46,2 
DISL,ioos:station:DISL:MHPA:1,2018-01-02T14:30:00Z,30.6671,-87.9365,-0.9,4.67,2 
DISL,ioos:station:DISL:MHPA:1,2018-01-02T15:30:00Z,30.6671,-87.9365,-0.9,4.9,2 
DISL,ioos:station:DISL:MHPA:1,2018-01-02T16:30:00Z,30.6671,-87.9365,-0.9,4.94,2 
DISL,ioos:station:DISL:MHPA:1,2018-01-02T19:30:00Z,30.6671,-87.9365,-0.9,5.54,2 
DISL,ioos:station:DISL:MHPA:1,2018-01-02T20:30:00Z,30.6671,-87.9365,-0.9,4.78,2 
DISL,ioos:station:DISL:MHPA:1,2018-01-02T21:30:00Z,30.6671,-87.9365,-0.9,4.81,2 
DISL,ioos:station:DISL:MHPA:1,2018-01-02T22:30:00Z,30.6671,-87.9365,-0.9,4.86,2 
DISL,ioos:station:DISL:MHPA:1,2018-01-02T23:30:00Z,30.6671,-87.9365,-0.9,4.42,2 
DISL,ioos:station:DISL:MHPA:1,2018-01-03T00:30:00Z,30.6671,-87.9365,-0.9,4.39,2 
DISL,ioos:station:DISL:MHPA:1,2018-01-03T01:30:00Z,30.6671,-87.9365,-0.9,4.94,2 
DISL,ioos:station:DISL:MHPA:1,2018-01-03T02:30:00Z,30.6671,-87.9365,-0.9,4.42,2 
DISL,ioos:station:DISL:MHPA:1,2018-01-03T03:30:00Z,30.6671,-87.9365,-0.9,5.08,2 
DISL,ioos:station:DISL:MHPA:1,2018-01-03T04:30:00Z,30.6671,-87.9365,-0.9,4.62,2 
DISL,ioos:station:DISL:MHPA:1,2018-01-03T05:30:00Z,30.6671,-87.9365,-0.9,4.84,2 
DISL,ioos:station:DISL:MHPA:1,2018-01-03T06:30:00Z,30.6671,-87.9365,-0.9,4.92,2 
DISL,ioos:station:DISL:MHPA:1,2018-01-03T07:30:00Z,30.6671,-87.9365,-0.9,4.61,2 
DISL,ioos:station:DISL:MHPA:1,2018-01-03T08:30:00Z,30.6671,-87.9365,-0.9,4.57,2 
DISL,ioos:station:DISL:MHPA:1,2018-01-03T09:30:00Z,30.6671,-87.9365,-0.9,5.29,2 
DISL,ioos:station:DISL:MHPA:1,2018-01-03T10:30:00Z,30.6671,-87.9365,-0.9,5.38,2 
DISL,ioos:station:DISL:MHPA:1,2018-01-03T11:30:00Z,30.6671,-87.9365,-0.9,5.49,2 
DISL,ioos:station:DISL:MHPA:1,2018-01-03T12:30:00Z,30.6671,-87.9365,-0.9,5.57,2 
DISL,ioos:station:DISL:MHPA:1,2018-01-03T13:30:00Z,30.6671,-87.9365,-0.9,5.52,2 
DISL,ioos:station:DISL:MHPA:1,2018-01-03T14:30:00Z,30.6671,-87.9365,-0.9,5.17,2 
DISL,ioos:station:DISL:MHPA:1,2018-01-03T15:30:00Z,30.6671,-87.9365,-0.9,5.09,2 
DISL,ioos:station:DISL:MHPA:1,2018-01-03T16:30:00Z,30.6671,-87.9365,-0.9,5.13,2 
DISL,ioos:station:DISL:MHPA:1,2018-01-03T17:30:00Z,30.6671,-87.9365,-0.9,5.18,2 
DISL,ioos:station:DISL:MHPA:1,2018-01-03T18:30:00Z,30.6671,-87.9365,-0.9,5.47,2 
DISL,ioos:station:DISL:MHPA:1,2018-01-03T19:30:00Z,30.6671,-87.9365,-0.9,5.66,2 
DISL,ioos:station:DISL:MHPA:1,2018-01-03T20:30:00Z,30.6671,-87.9365,-0.9,5.87,2 
DISL,ioos:station:DISL:MHPA:1,2018-01-03T21:30:00Z,30.6671,-87.9365,-0.9,5.95,2 
DISL,ioos:station:DISL:MHPA:1,2018-01-03T22:30:00Z,30.6671,-87.9365,-0.9,5.96,2 
DISL,ioos:station:DISL:MHPA:1,2018-01-03T23:30:00Z,30.6671,-87.9365,-0.9,5.96,2 
DISL,ioos:station:DISL:MHPA:1,2018-01-04T00:30:00Z,30.6671,-87.9365,-0.9,5.9,2 
DISL,ioos:station:DISL:MHPA:1,2018-01-04T01:30:00Z,30.6671,-87.9365,-0.9,6.52,2 
DISL,ioos:station:DISL:MHPA:1,2018-01-04T02:30:00Z,30.6671,-87.9365,-0.9,6.28,2 
DISL,ioos:station:DISL:MHPA:1,2018-01-04T03:30:00Z,30.6671,-87.9365,-0.9,6.03,2 
DISL,ioos:station:DISL:MHPA:1,2018-01-04T04:30:00Z,30.6671,-87.9365,-0.9,5.96,2 
DISL,ioos:station:DISL:MHPA:1,2018-01-04T05:30:00Z,30.6671,-87.9365,-0.9,5.81,2 
DISL,ioos:station:DISL:MHPA:1,2018-01-04T06:30:00Z,30.6671,-87.9365,-0.9,5.65,2 
DISL,ioos:station:DISL:MHPA:1,2018-01-04T07:30:00Z,30.6671,-87.9365,-0.9,5.73,2 
DISL,ioos:station:DISL:MHPA:1,2018-01-04T08:30:00Z,30.6671,-87.9365,-0.9,6.14,2 
DISL,ioos:station:DISL:MHPA:1,2018-01-04T09:30:00Z,30.6671,-87.9365,-0.9,5.79,2 
DISL,ioos:station:DISL:MHPA:1,2018-01-04T10:30:00Z,30.6671,-87.9365,-0.9,5.88,2 
DISL,ioos:station:DISL:MHPA:1,2018-01-04T11:30:00Z,30.6671,-87.9365,-0.9,5.67,2 
DISL,ioos:station:DISL:MHPA:1,2018-01-04T12:30:00Z,30.6671,-87.9365,-0.9,5.13,2 
DISL,ioos:station:DISL:MHPA:1,2018-01-04T13:30:00Z,30.6671,-87.9365,-0.9,4.9,2 
DISL,ioos:station:DISL:MHPA:1,2018-01-04T14:30:00Z,30.6671,-87.9365,-0.9,4.88,2 
DISL,ioos:station:DISL:MHPA:1,2018-01-04T15:30:00Z,30.6671,-87.9365,-0.9,4.93,2 
DISL,ioos:station:DISL:MHPA:1,2018-01-04T16:30:00Z,30.6671,-87.9365,-0.9,4.98,2 
DISL,ioos:station:DISL:MHPA:1,2018-01-30T16:00:00Z,30.6671,-87.9365,-0.9,10.54,2 
DISL,ioos:station:DISL:MHPA:1,2018-01-30T17:00:00Z,30.6671,-87.9365,-0.9,10.87,2 
DISL,ioos:station:DISL:MHPA:1,2018-01-30T18:00:00Z,30.6671,-87.9365,-0.9,11.1,2 
DISL,ioos:station:DISL:MHPA:1,2018-01-30T19:00:00Z,30.6671,-87.9365,-0.9,11.23,2 
DISL,ioos:station:DISL:MHPA:1,2018-01-30T20:00:00Z,30.6671,-87.9365,-0.9,11.24,2 
DISL,ioos:station:DISL:MHPA:1,2018-01-30T21:00:00Z,30.6671,-87.9365,-0.9,11.54,2 
DISL,ioos:station:DISL:MHPA:1,2018-01-30T22:00:00Z,30.6671,-87.9365,-0.9,11.64,2 
DISL,ioos:station:DISL:MHPA:1,2018-01-30T23:00:00Z,30.6671,-87.9365,-0.9,11.9,2 
DISL,ioos:station:DISL:MHPA:1,2018-01-31T00:00:00Z,30.6671,-87.9365,-0.9,12.08,2 
DISL,ioos:station:DISL:MHPA:1,2018-01-31T01:00:00Z,30.6671,-87.9365,-0.9,11.79,2 
DISL,ioos:station:DISL:MHPA:1,2018-01-31T02:00:00Z,30.6671,-87.9365,-0.9,11.63,2 
DISL,ioos:station:DISL:MHPA:1,2018-01-31T03:00:00Z,30.6671,-87.9365,-0.9,11.53,2 
DISL,ioos:station:DISL:MHPA:1,2018-01-31T04:00:00Z,30.6671,-87.9365,-0.9,11.74,2 
DISL,ioos:station:DISL:MHPA:1,2018-01-31T05:00:00Z,30.6671,-87.9365,-0.9,11.71,2 
DISL,ioos:station:DISL:MHPA:1,2018-01-31T06:00:00Z,30.6671,-87.9365,-0.9,11.77,2 
DISL,ioos:station:DISL:MHPA:1,2018-01-31T07:00:00Z,30.6671,-87.9365,-0.9,11.77,2 
DISL,ioos:station:DISL:MHPA:1,2018-01-31T08:00:00Z,30.6671,-87.9365,-0.9,11.83,2 
DISL,ioos:station:DISL:MHPA:1,2018-01-31T09:00:00Z,30.6671,-87.9365,-0.9,11.52,2 
DISL,ioos:station:DISL:MHPA:1,2018-01-31T10:00:00Z,30.6671,-87.9365,-0.9,11.39,2 
DISL,ioos:station:DISL:MHPA:1,2018-01-31T11:00:00Z,30.6671,-87.9365,-0.9,11.74,2 
DISL,ioos:station:DISL:MHPA:1,2018-01-31T12:00:00Z,30.6671,-87.9365,-0.9,11.56,2 
DISL,ioos:station:DISL:MHPA:1,2018-01-31T13:00:00Z,30.6671,-87.9365,-0.9,11.34,2 
DISL,ioos:station:DISL:MHPA:1,2018-01-31T14:00:00Z,30.6671,-87.9365,-0.9,11.56,2 
DISL,ioos:station:DISL:MHPA:1,2018-01-31T15:00:00Z,30.6671,-87.9365,-0.9,11.59,2 
DISL,ioos:station:DISL:MHPA:1,2018-01-31T16:00:00Z,30.6671,-87.9365,-0.9,11.29,2 
DISL,ioos:station:DISL:MHPA:1,2018-01-31T17:00:00Z,30.6671,-87.9365,-0.9,10.85,2 
DISL,ioos:station:DISL:MHPA:1,2018-01-31T18:00:00Z,30.6671,-87.9365,-0.9,11.23,2 
DISL,ioos:station:DISL:MHPA:1,2018-01-31T19:00:00Z,30.6671,-87.9365,-0.9,11.7,2 
DISL,ioos:station:DISL:MHPA:1,2018-01-31T20:00:00Z,30.6671,-87.9365,-0.9,12.65,2 
DISL,ioos:station:DISL:MHPA:1,2018-01-31T21:00:00Z,30.6671,-87.9365,-0.9,13.2,2 
DISL,ioos:station:DISL:MHPA:1,2018-01-31T22:00:00Z,30.6671,-87.9365,-0.9,13.66,2 
DISL,ioos:station:DISL:MHPA:1,2018-01-31T23:00:00Z,30.6671,-87.9365,-0.9,14.29,2 
 
DISCLAIMER: The Gulf of Mexico Coastal and Ocean Observing (GCOOS) Data Portal aggregates data from the regional data providers for the convenience of all data users. Data published on this website should not be used for navigation or certain other uses as we cannot guarantee data accuracy or availability. The data and delivery services are provided 'as is' without warranty of any kind. Data Source: Gulf of Mexico Coastal Ocean Observing System Data Portal (http://data.gcoos.org/) 
